• In Latvia
  • List of Countries
  • For 7 days
  • Water Temperature
  • Satellite Maps
  • Weather Map
  • Weather Widgets
  • user-avatar
    Login

    Hourly Weather Thimphu

    Today, 18 January, Thursday

    Time Temperature Precipitation Wind Pressure Humidity
    00:00 +2°C° 0 mm 1 mps 521 mmHg 80%
    01:00 +2°C° 0 mm 1 mps 521 mmHg 77%
    02:00 +2°C° 0 mm 1 mps 520 mmHg 73%
    03:00 +2°C° 0 mm 1 mps 520 mmHg 70%
    04:00 +2°C° 0 mm 1 mps 520 mmHg 67%
    05:00 +2°C° 0 mm 1 mps 520 mmHg 64%
    06:00 +1°C° 0 mm 1 mps 520 mmHg 56%
    07:00 +4°C° 0 mm 1 mps 522 mmHg 51%
    08:00 +6°C° 0 mm 1 mps 524 mmHg 46%
    09:00 +8°C° 0 mm 1 mps 525 mmHg 41%
    10:00 +10°C° 0 mm 1 mps 526 mmHg 40%
    11:00 +10°C° 0 mm 2 mps 526 mmHg 39%
    12:00 +12°C° 0 mm 2 mps 527 mmHg 38%
    13:00 +12°C° 0 mm 2 mps 526 mmHg 42%
    14:00 +10°C° 0 mm 2 mps 526 mmHg 47%
    15:00 +10°C° 0 mm 3 mps 525 mmHg 51%
    16:00 +8°C° 0 mm 2 mps 524 mmHg 63%
    17:00 +6°C° 0 mm 1 mps 523 mmHg 76%
    18:00 +4°C° 0 mm 1 mps 521 mmHg 89%
    19:00 +4°C° 0 mm 1 mps 522 mmHg 87%
    20:00 +4°C° 0 mm 1 mps 522 mmHg 85%
    21:00 +3°C° 0 mm 1 mps 522 mmHg 83%
    22:00 +3°C° 0 mm 1 mps 522 mmHg 81%
    23:00 +3°C° 0 mm 1 mps 522 mmHg 78%

    Tomorrow, 19 January, Friday

    Time Temperature Precipitation Wind Pressure Humidity
    00:00 +3°C° 0 mm 1 mps 522 mmHg 76%
    01:00 +3°C° 0 mm 1 mps 522 mmHg 73%
    02:00 +3°C° 0 mm 1 mps 521 mmHg 71%
    03:00 +2°C° 0 mm 1 mps 521 mmHg 68%
    04:00 +2°C° 0 mm 1 mps 521 mmHg 65%
    05:00 +2°C° 0 mm 1 mps 521 mmHg 63%
    06:00 +2°C° 0 mm 1 mps 521 mmHg 60%
    07:00 +4°C° 0 mm 1 mps 523 mmHg 53%
    08:00 +6°C° 0 mm 1 mps 525 mmHg 47%
    09:00 +9°C° 0 mm 1 mps 526 mmHg 40%
    10:00 +10°C° 0 mm 1 mps 527 mmHg 39%
    11:00 +10°C° 0 mm 2 mps 527 mmHg 38%
    12:00 +13°C° 0 mm 2 mps 528 mmHg 37%
    13:00 +12°C° 0 mm 2 mps 527 mmHg 41%
    14:00 +11°C° 0 mm 3 mps 526 mmHg 45%
    15:00 +10°C° 0 mm 3 mps 526 mmHg 49%
    16:00 +8°C° 0 mm 2 mps 524 mmHg 61%
    17:00 +6°C° 0 mm 2 mps 523 mmHg 74%
    18:00 +4°C° 0 mm 1 mps 522 mmHg 86%
    19:00 +4°C° 0 mm 1 mps 522 mmHg 84%
    20:00 +4°C° 0 mm 1 mps 522 mmHg 82%
    21:00 +3°C° 0 mm 1 mps 522 mmHg 80%
    22:00 +3°C° 0 mm 1 mps 522 mmHg 77%
    23:00 +3°C° 0 mm 1 mps 522 mmHg 75%

    Day after tomorrow, 20 January, Saturday

    Time Temperature Precipitation Wind Pressure Humidity
    00:00 +3°C° 0 mm 1 mps 522 mmHg 73%
    01:00 +2°C° 0 mm 1 mps 521 mmHg 70%
    02:00 +2°C° 0 mm 1 mps 521 mmHg 68%
    03:00 +2°C° 0 mm 1 mps 520 mmHg 65%
    04:00 +2°C° 0 mm 1 mps 520 mmHg 63%
    05:00 +1°C° 0 mm 1 mps 520 mmHg 60%
    06:00 +1°C° 0 mm 1 mps 520 mmHg 58%
    07:00 +3°C° 0 mm 1 mps 521 mmHg 51%
    08:00 +6°C° 0 mm 1 mps 523 mmHg 44%
    09:00 +8°C° 0 mm 1 mps 525 mmHg 37%
    10:00 +8°C° 0 mm 2 mps 525 mmHg 35%
    11:00 +9°C° 0 mm 2 mps 525 mmHg 33%
    12:00 +11°C° 0 mm 3 mps 526 mmHg 31%
    13:00 +10°C° 0 mm 3 mps 525 mmHg 34%
    14:00 +10°C° 0 mm 3 mps 524 mmHg 37%
    15:00 +10°C° 0 mm 3 mps 523 mmHg 40%
    16:00 +7°C° 0 mm 2 mps 522 mmHg 53%
    17:00 +4°C° 0 mm 2 mps 521 mmHg 65%
    18:00 +3°C° 0 mm 1 mps 520 mmHg 78%
    19:00 +3°C° 0 mm 1 mps 520 mmHg 74%
    20:00 +3°C° 0 mm 1 mps 520 mmHg 71%
    21:00 +2°C° 0 mm 1 mps 521 mmHg 68%
    22:00 +2°C° 0 mm 1 mps 521 mmHg 65%
    23:00 +2°C° 0 mm 1 mps 520 mmHg 62%

    21 January, Sunday

    Time Temperature Precipitation Wind Pressure Humidity
    00:00 +1°C° 0 mm 2 mps 520 mmHg 58%
    01:00 +1°C° 0 mm 2 mps 520 mmHg 56%
    02:00 +1°C° 0 mm 2 mps 520 mmHg 53%
    03:00 +1°C° 0 mm 2 mps 520 mmHg 51%
    04:00 +1°C° 0 mm 2 mps 520 mmHg 49%
    05:00 -1°C° 0 mm 2 mps 520 mmHg 47%
    06:00 -1°C° 0 mm 2 mps 520 mmHg 45%
    07:00 +3°C° 0 mm 2 mps 522 mmHg 41%
    08:00 +5°C° 0 mm 2 mps 524 mmHg 36%
    09:00 +8°C° 0 mm 1 mps 526 mmHg 32%
    10:00 +8°C° 0 mm 2 mps 526 mmHg 31%
    11:00 +10°C° 0 mm 2 mps 527 mmHg 31%
    12:00 +12°C° 0 mm 2 mps 527 mmHg 30%
    13:00 +12°C° 0 mm 2 mps 527 mmHg 34%
    14:00 +10°C° 0 mm 2 mps 526 mmHg 39%
    15:00 +10°C° 0 mm 2 mps 525 mmHg 43%
    16:00 +7°C° 0 mm 2 mps 524 mmHg 57%
    17:00 +6°C° 0 mm 1 mps 523 mmHg 71%
    18:00 +4°C° 0 mm 1 mps 521 mmHg 84%
    19:00 +4°C° 0 mm 1 mps 522 mmHg 82%
    20:00 +3°C° 0 mm 1 mps 522 mmHg 80%
    21:00 +3°C° 0 mm 1 mps 522 mmHg 78%
    22:00 +3°C° 0 mm 1 mps 522 mmHg 76%
    23:00 +3°C° 0 mm 1 mps 522 mmHg 73%

    22 January, Monday

    Time Temperature Precipitation Wind Pressure Humidity
    00:00 +3°C° 0 mm 1 mps 521 mmHg 71%
    01:00 +2°C° 0 mm 2 mps 521 mmHg 67%
    02:00 +2°C° 0 mm 2 mps 521 mmHg 63%
    03:00 +1°C° 0 mm 2 mps 520 mmHg 59%
    04:00 +1°C° 0 mm 2 mps 520 mmHg 55%
    05:00 +1°C° 0 mm 2 mps 520 mmHg 52%
    06:00 +1°C° 0 mm 2 mps 520 mmHg 48%
    07:00 +5°C° 0 mm 1 mps 522 mmHg 43%
    08:00 +7°C° 0 mm 1 mps 524 mmHg 39%
    09:00 +9°C° 0 mm 1 mps 526 mmHg 34%
    10:00 +11°C° 0 mm 1 mps 526 mmHg 34%
    11:00 +12°C° 0 mm 2 mps 527 mmHg 35%
    12:00 +13°C° 0 mm 2 mps 527 mmHg 35%
    13:00 +13°C° 0 mm 2 mps 526 mmHg 39%
    14:00 +12°C° 0 mm 2 mps 526 mmHg 44%
    15:00 +11°C° 0 mm 3 mps 525 mmHg 48%
    16:00 +9°C° 0 mm 2 mps 524 mmHg 61%
    17:00 +6°C° 0 mm 2 mps 522 mmHg 73%
    18:00 +5°C° 0 mm 1 mps 521 mmHg 86%
    19:00 +5°C° 0 mm 1 mps 522 mmHg 84%
    20:00 +4°C° 0 mm 1 mps 522 mmHg 83%
    21:00 +4°C° 0 mm 1 mps 522 mmHg 81%
    22:00 +4°C° 0 mm 1 mps 522 mmHg 80%
    23:00 +4°C° 0 mm 1 mps 522 mmHg 78%

    23 January, Tuesday

    Time Temperature Precipitation Wind Pressure Humidity
    00:00 +4°C° 0 mm 1 mps 521 mmHg 77%
    01:00 +3°C° 0 mm 1 mps 521 mmHg 75%
    02:00 +3°C° 0 mm 1 mps 521 mmHg 73%
    03:00 +3°C° 0 mm 1 mps 521 mmHg 71%
    04:00 +3°C° 0 mm 1 mps 521 mmHg 69%
    05:00 +3°C° 0 mm 1 mps 521 mmHg 67%
    06:00 +2°C° 0 mm 1 mps 520 mmHg 65%
    07:00 +5°C° 0 mm 1 mps 522 mmHg 57%
    08:00 +7°C° 0 mm 1 mps 524 mmHg 50%
    09:00 +9°C° 0 mm 1 mps 526 mmHg 42%
    10:00 +10°C° 0 mm 2 mps 526 mmHg 39%
    11:00 +12°C° 0 mm 2 mps 526 mmHg 36%
    12:00 +12°C° 0 mm 3 mps 527 mmHg 33%
    13:00 +12°C° 0 mm 3 mps 526 mmHg 36%
    14:00 +12°C° 0 mm 3 mps 526 mmHg 39%
    15:00 +11°C° 0 mm 3 mps 525 mmHg 42%
    16:00 +9°C° 0 mm 2 mps 524 mmHg 55%
    17:00 +6°C° 0 mm 2 mps 522 mmHg 69%
    18:00 +4°C° 0 mm 1 mps 521 mmHg 82%
    19:00 +3°C° 0 mm 2 mps 521 mmHg 80%
    20:00 +3°C° 0 mm 2 mps 521 mmHg 78%
    21:00 +3°C° 0 mm 2 mps 522 mmHg 76%
    22:00 +2°C° 0 mm 2 mps 521 mmHg 73%
    23:00 +2°C° 0 mm 2 mps 521 mmHg 70%
    Show more